sat.trackr.live / text

‹ back to catalog

STARLINK-1319

NORAD 45379 · 2020-019V

PAYLOAD ACTIVE UNKNOWN

§ Identity

Operator
Country
US
Launch date
2020-03-18
Launch site
AFETR
Launch vehicle
Mass (kg)
RCS (m²)

Purposes: comms

External: N2YO · Heavens-Above · Gunter

§ Orbital elements

Epoch: 2026-09-18T12:09:13.303872Z

Period
87.90 min
Inclination
53.0138°
Eccentricity
0.0002541
Mean motion
16.38279952 rev/d
Perigee alt
168.7 km
Apogee alt
172.0 km
Semi-major
6,548.5 km
B*
5.6069e-4
RAAN
239.2487°
Arg perigee
316.2310°
Mean anomaly
43.8534°
Rev number
36,077

§ Raw data

STARLINK-13191 45379U 20019V   26261.50640398  .06250019  12345-4  56069-3 0  99932 45379  53.0138 239.2487 0002541 316.2310  43.8534 16.38279952360775

JSON: /api/v1/satellites/45379 · /tle

For live sub-satellite position, see the globe view (requires WebGL).

§ Visibility from observer

Set your observer location to see the next 7 days of passes ≥ 10°. The values pass through the URL so the page stays shareable.

No JS? Fill the form by hand. The geolocation button needs JavaScript.